Regional Weather Roundup
Issued by NWS Newport/Morehead, NC

Current Version | Previous Version | Graphics & Text | Print | Product List | Glossary Off
Versions: 1 2 3 4 5 6 7 8 9 10 11 12 13 14 15 16 17 18 19 20 21 22 23 24 25 26 27 28 29 30 31 32 33 34 35 36 37 38 39 40 41 42 43 44 45 46 47 48 49 50

000
ASUS42 KMHX 232113
RWRMHX
WEATHER ROUNDUP FOR EASTERN NORTH CAROLINA
NATIONAL WEATHER SERVICE NEWPORT/MOREHEAD CITY NC
500 PM EDT THU MAR 23 2017

NOTE: "FAIR" INDICATES FEW OR NO CLOUDS BELOW 12,000 FEET
WITH NO SIGNIFICANT WEATHER AND/OR OBSTRUCTIONS TO VISIBILITY

NCZ015>017-031-032-045>047-102-103-232200-
NORTH COAST

CITY           SKY/WX    TMP DP  RH WIND       PRES   REMARKS
EDENTON        SUNNY     47  30  53 SE9G16    30.58F
ELIZABETH CITY SUNNY     44  23  43 E9        30.59F
KITTY HAWK     NOT AVBL
MANTEO         SUNNY     42  26  53 N13       30.60S

$$

NCZ045>047-081-094-103-104-232200-
CENTRAL COAST

CITY           SKY/WX    TMP DP  RH WIND       PRES   REMARKS
FRISCO         SUNNY     45  29  53 NE12G21   30.58S

$$

NCZ095-097-098-100-101-232200-
SOUTHERN COAST

CITY           SKY/WX    TMP DP  RH WIND       PRES   REMARKS
BEAUFORT       SUNNY     50  28  42 NE13      30.56S
CEDAR ISLAND   NOT AVBL
JACKSONVILLE   SUNNY     55  24  30 E6        30.53S
PINEY ISLAND   CLEAR    N/A N/A N/A NE14      30.57S
WILMINGTON     SUNNY     52  31  44 E9        30.55R


$$

NCZ011>013-027>030-043-044-078>080-089-090>093-098-232200-
COASTAL PLAIN

CITY           SKY/WX    TMP DP  RH WIND       PRES   REMARKS
AHOSKIE          N/A     50  14  24 NE3       30.56
CLINTON        SUNNY     55  25  30 E3        30.54S
ELIZABETHTOWN  SUNNY     58  22  25 NE5       30.52S
GOLDSBORO      SUNNY     55  19  25 CALM      30.53S
GREENVILLE     SUNNY     52  19  28 E3        30.55S
HAVELOCK       SUNNY     50  30  46 NE13      30.57S
KENANSVILLE    SUNNY     54  23  30 NE5       30.54S
KINSTON        SUNNY     54  21  28 NE5       30.55F
NEW BERN       SUNNY     52  26  36 E7        30.56S
RICHLANDS      SUNNY     54  26  34 NE8       30.54S
ROCKY MOUNT    SUNNY     51  17  26 CALM      30.55F
WASHINGTON     SUNNY     50  26  40 E9        30.57S
WHITEVILLE     SUNNY     58  22  24 E3        30.51S

$$

AMZ130-135-150-152-154-156-158-170-250-252-270-ANZ085-086-088-633-658-670-232200-
MARINE OBSERVATIONS

STATION/POSITION TIME  TEMP    WIND        PRES    WAVE   SWELL
                       AIR SEA DIR/SP/G            HT/PER HT/PER
                 (UTC) (F)     (DEG/KT/KT) (MB)    (FT/S) (FT/S)
CHESAPEAKE LIGHT NOT AVBL
64 E VA BEACH    2050   38 50  360/ 10/ 14 1035.8    5/ 7   5/ 7
DUCK             2048   38 48   20/  9/ 12 1035.6
2 E DUCK         2030      48                N/A     5/ 7   2/11
OREGON INLET     2042   40 50   10/ 13/ 15 1035.8
13E OREGON INLT  NOT AVBL
HATTERAS CG      2048   42 51   20/ 12/ 19 1035.1
DIAMOND BUOY     2050   46 74   20/ 16/ 21 1034.8    9/10   8/10
CAPE LOOKOUT     2100   45      40/ 16/ 19 1034.5
BEAUFORT LAB     2048   47 51   10/ 12/ 17 1033.9
30 SE NEW RVR IN 2008   49      50/ 16/ 21 1034.3
30 SE NEW RVR IN 2043      68                N/A     6/ 6   2/12
27 SE WRIGHTSVLE 2008   49 62   70/ 16/ 21 1033.3
5 SE WRIGHTSVLE  2008   49 57  100/ 14/ 23 1034.3
225 S CAPE HAT   2050   61 72   40/ 17/ 23 1029.6    8/10   7/10
41 SE CHARLESTON 2050   60 71   30/ 23/ 29 1030.2    7/ 6   2/ 9

$$




USA.gov is the U.S. government's official web portal to all federal, state and local government web resources and services.